星链-38056(STARLINK-38056)

导读

STARLINK-38056(NORAD编号69760)是美国SpaceX公司星链低轨通信星座的组网卫星,2026年6月28日随猎鹰9号火箭发射入轨,当前处于约550公里高度的近地轨道,运行周期约95分钟。该星设计寿命约5年,为星链二代系列卫星,具备星间激光链路能力,主要为全球偏远及基础设施不足区域提供千兆级高速低时延互联网接入服务,同时可服务航空、海事通信场景,所属星座目前仍保持高频次组网发射节奏。

基本信息
目录编号:
69760
目录名称:
STARLINK-38056
国际标识:
2026-150X
轨道中心:
EARTH
卫星名称:
星链-38056
卫星全名:
星链-38056(STARLINK-38056)
卫星状态:
在轨 (已飞行64 天)
发射日期:
2026-07-02 UTC
国别 :
美国 (US)
星等 :
--
轨道信息
数据来源 国际轨道数据 AOE轨道数据
星历时间 2026-09-03T20:23:34+0800
23小时前
查看轨道信息
2026-09-03T04:00:00+0800
1天前
查看轨道信息
半长轴 6843.694km 6843.722km
偏心率 0.0001654 0.0001494
轨道倾角 97.286° 97.287°
近地点辐角 91.372° 90.833°
升交点赤经 85.694° 85.021°
平近点角 268.771° 101.189°
近地点 464.425km 464.562km
远地点 466.689km 466.608km
周期 93.906分钟 93.907分钟
每日圈数 15.334406 15.334312
详细信息
固有亮度:
5
最大亮度:
2.5
卫星平台:
Starlink V1.0
覆盖范围:
全球
运营商:
太空探索技术公司
运营商所在国:
美国
制造商(研发单位):
太空探索技术公司
制造商所在国:
美国
使用方式:
暂无
卫星简介
Starlink 计划是 SpaceX 推出的全球卫星互联网项目,通过发射低轨道卫星,为全球尤其是偏远地区提供高速、低延迟的互联网服务。自 2019 年起,Starlink 已部署数千颗卫星,旨在缩小全球数字鸿沟,推动互联网普及。该项目还为军事、航空等行业提供通信支持,带来广泛经济效益。
2D轨道图
3D轨道图
轨道高度分析图
轨道倾角分析图
轨道综合分析图
查看轨道综合分析图